This demonstration page uses our WeatherBlox Daily Observations layout. Learn more.

Left ArrowRight Arrow

Hourly Observations for May 2, 2019

Temp ( °F °C ) Dew Point ( °F °C ) Humidity (%) Winds ( mph kmh ) Pressure ( in mb ) Visibility ( mi km ) Precip ( " mm )
12:52 am 00:52 Clear 68 20 61 16.1 78 78 SSE 12 19 29.94 1014 10 16 0.00 0.00
1:52 am 01:52 Clear 67 19.4 61 16.1 81 81 SSE 13 20 29.95 1014 10 16 0.00 0.00
2:52 am 02:52 Clear 66 18.9 61 16.1 84 84 S 13 20 29.94 1014 10 16 0.00 0.00
3:52 am 03:52 Clear 67 19.4 56 13.3 68 68 W 10 17 29.94 1014 10 16 0.00 0.00
4:52 am 04:52 Cloudy 66 18.9 55 12.8 68 68 WSW 5 7 29.96 1015 10 16 0.00 0.00
5:52 am 05:52 Cloudy with Light Rain 65 18.3 57 13.9 76 76 Calm 29.97 1015 10 16 0.01 0.25
6:52 am 06:52 Cloudy with Light Rain 62 16.7 58 14.4 86 86 NNE 6 9 30.00 1016 7 11 0.02 0.51
7:52 am 07:52 Cloudy with Light Rain 63 17.2 59 15 87 87 NW 3 6 30.02 1017 10 16 0.01 0.25
8:20 am 08:20 Cloudy 63 17.2 60 15.6 90 90 NW 6 9 30.04 1017 10 16 0.00 0.03
8:32 am 08:32 Cloudy 64 17.8 61 16.1 90 90 NW 8 13 30.03 1017 10 16 0.00 0.03
8:52 am 08:52 Cloudy with Mist and Fog 60 15.6 58 14.4 93 93 NNW 16 26 30.04 1017 3 5 0.00 0.03
9:52 am 09:52 Cloudy 59 15 57 13.9 93 93 NNW 15 24 30.04 1017 8 13 0.00 0.00
10:24 am 10:24 Mostly Cloudy 61 16.1 57 13.9 87 87 N 13 20 30.04 1017 10 16 0.00 0.00
10:42 am 10:42 Partly Cloudy 62 16.7 56 13.3 80 80 ENE 8 13 30.05 1018 10 16 0.00 0.00
10:52 am 10:52 Mostly Sunny 62 16.7 56 13.3 80 80 ENE 8 13 30.04 1017 10 16 0.00 0.00
11:52 am 11:52 Sunny 65 18.3 57 13.9 76 76 E 10 17 30.01 1016 10 16 0.00 0.00
12:52 pm 12:52 Partly Cloudy 68 20 58 14.4 70 70 E 5 7 30.01 1016 10 16 0.00 0.00
1:18 pm 13:18 Cloudy 67 19.4 58 14.4 73 73 NNW 13 20 30.02 1016 10 16 0.00 0.00
1:40 pm 13:40 Cloudy 68 20 59 15 73 73 NNW 10 17 30.00 1016 10 16 0.00 0.00
1:52 pm 13:52 Mostly Cloudy 68 20 59 15 73 73 NNW 13 20 30.01 1016 10 16 0.00 0.00
2:30 pm 14:30 Mostly Cloudy 68 20 58 14.4 70 70 N 13 20 29.99 1016 10 16 0.00 0.00
2:52 pm 14:52 Cloudy 68 20 58 14.4 70 70 N 14 22 30.00 1016 10 16 0.00 0.00
3:52 pm 15:52 Cloudy 66 18.9 57 13.9 73 73 N 13 20 29.99 1016 10 16 0.00 0.00
4:44 pm 16:44 Cloudy 62 16.7 55 12.8 78 78 N 13 20 30.00 1016 10 16 0.00 0.00
4:52 pm 16:52 Cloudy 62 16.7 55 12.8 78 78 N 13 20 30.00 1016 10 16 0.00 0.00
5:52 pm 17:52 Cloudy 61 16.1 55 12.8 81 81 NNE 12 19 30.00 1016 10 16 0.00 0.00
6:34 pm 18:34 Cloudy 60 15.6 54 12.2 80 80 NNE 13 20 30.00 1016 10 16 0.00 0.00
6:52 pm 18:52 Cloudy 59 15 54 12.2 83 83 NNE 14 22 30.00 1016 10 16 0.00 0.00
7:52 pm 19:52 Cloudy 58 14.4 54 12.2 87 87 NNE 10 17 30.01 1016 10 16 0.00 0.00
8:52 pm 20:52 Cloudy 58 14.4 54 12.2 87 87 NE 9 15 30.03 1017 10 16 0.00 0.00
9:52 pm 21:52 Cloudy 58 14.4 54 12.2 87 87 NE 8 13 30.03 1017 10 16 0.00 0.00
10:52 pm 22:52 Cloudy 58 14.4 54 12.2 87 87 NE 8 13 30.03 1017 10 16 0.00 0.00
11:52 pm 23:52 Cloudy 58 14.4 54 12.2 87 87 NE 6 9 30.03 1017 10 16 0.00 0.00

Powered by AerisWeather